Time,TemperatureF,DewpointF,PressureIn,WindDirection,WindDirectionDegrees,WindSpeedMPH,WindSpeedGustMPH,Humidity,HourlyPrecipIn,Conditions,Clouds,dailyrainin,SoftwareType,DateUTC
2015-05-28 00:00:00,60.9,59.5,30.20,NW,326,0.0,1.0,95,0.00,,,0.00,WeatherCatV2.02B30,2015-05-27 14:00:00,
2015-05-28 00:05:00,60.8,59.4,30.20,NW,326,0.0,0.0,95,0.00,,,0.00,WeatherCatV2.02B30,2015-05-27 14:05:00,
2015-05-28 00:10:00,60.6,59.2,30.20,NW,323,1.0,1.0,95,0.00,,,0.00,WeatherCatV2.02B30,2015-05-27 14:10:00,
2015-05-28 00:15:00,60.5,59.1,30.20,NW,323,0.0,1.0,95,0.00,,,0.00,WeatherCatV2.02B30,2015-05-27 14:15:00,
2015-05-28 00:20:00,60.6,59.2,30.20,NW,323,0.0,0.0,95,0.00,,,0.00,WeatherCatV2.02B30,2015-05-27 14:20:00,
2015-05-28 00:25:00,60.5,59.1,30.20,NW,323,0.0,1.0,95,0.00,,,0.00,WeatherCatV2.02B30,2015-05-27 14:25:00,
2015-05-28 00:30:00,60.5,59.1,30.20,NW,323,0.0,1.0,95,0.00,,,0.00,WeatherCatV2.02B30,2015-05-27 14:30:00,
2015-05-28 00:35:00,60.5,59.1,30.20,NW,323,0.0,0.0,95,0.00,,,0.00,WeatherCatV2.02B30,2015-05-27 14:35:00,
2015-05-28 00:40:00,60.4,59.0,30.20,NW,323,0.0,0.0,95,0.00,,,0.00,WeatherCatV2.02B30,2015-05-27 14:40:00,
2015-05-28 00:45:00,60.2,58.8,30.20,NW,323,0.0,0.0,95,0.00,,,0.00,WeatherCatV2.02B30,2015-05-27 14:45:00,
2015-05-28 00:50:00,60.1,58.7,30.20,NW,323,0.0,1.0,95,0.00,,,0.00,WeatherCatV2.02B30,2015-05-27 14:50:00,
2015-05-28 00:55:00,59.9,58.5,30.20,NW,322,0.0,0.0,95,0.00,,,0.00,WeatherCatV2.02B30,2015-05-27 14:55:00,
2015-05-28 01:00:00,59.7,58.3,30.20,NW,322,0.0,0.0,95,0.00,,,0.00,WeatherCatV2.02B30,2015-05-27 15:00:00,
2015-05-28 01:06:00,59.3,57.9,30.20,NW,323,0.0,0.0,95,0.00,,,0.00,WeatherCatV2.02B30,2015-05-27 15:06:00,
2015-05-28 01:11:00,59.1,57.7,30.20,NW,323,0.0,0.0,95,0.00,,,0.00,WeatherCatV2.02B30,2015-05-27 15:11:00,
2015-05-28 01:16:00,59.0,57.6,30.20,NW,323,0.0,0.0,95,0.00,,,0.00,WeatherCatV2.02B30,2015-05-27 15:16:00,
2015-05-28 01:21:00,58.8,57.4,30.20,NW,323,0.0,0.0,95,0.00,,,0.00,WeatherCatV2.02B30,2015-05-27 15:21:00,
2015-05-28 01:26:00,58.6,57.2,30.20,NW,323,0.0,0.0,95,0.00,,,0.00,WeatherCatV2.02B30,2015-05-27 15:26:00,
2015-05-28 01:31:00,58.3,56.9,30.20,NW,323,0.0,0.0,95,0.00,,,0.00,WeatherCatV2.02B30,2015-05-27 15:31:00,
2015-05-28 01:36:00,58.2,56.8,30.20,NW,323,0.0,0.0,95,0.00,,,0.00,WeatherCatV2.02B30,2015-05-27 15:36:00,
2015-05-28 01:41:00,58.0,56.9,30.20,NW,323,0.0,0.0,96,0.00,,,0.00,WeatherCatV2.02B30,2015-05-27 15:41:00,
2015-05-28 01:46:00,57.8,56.7,30.20,NNW,343,0.0,0.0,96,0.00,,,0.00,WeatherCatV2.02B30,2015-05-27 15:46:00,
2015-05-28 01:51:00,57.9,56.8,30.19,North,359,0.0,0.0,96,0.00,,,0.00,WeatherCatV2.02B30,2015-05-27 15:51:00,
2015-05-28 01:56:00,57.8,56.7,30.19,North,358,0.0,0.0,96,0.00,,,0.00,WeatherCatV2.02B30,2015-05-27 15:56:00,
2015-05-28 02:01:00,57.7,56.6,30.19,North,358,0.0,0.0,96,0.00,,,0.00,WeatherCatV2.02B30,2015-05-27 16:01:00,
2015-05-28 02:06:00,57.7,56.6,30.19,North,4,0.0,0.0,96,0.00,,,0.00,WeatherCatV2.02B30,2015-05-27 16:06:00,
2015-05-28 02:11:00,57.6,56.5,30.19,North,1,0.0,1.0,96,0.00,,,0.00,WeatherCatV2.02B30,2015-05-27 16:11:00,
2015-05-28 02:16:00,57.5,56.4,30.19,North,2,0.0,0.0,96,0.00,,,0.00,WeatherCatV2.02B30,2015-05-27 16:16:00,
2015-05-28 02:21:00,57.3,56.2,30.19,North,2,0.0,0.0,96,0.00,,,0.00,WeatherCatV2.02B30,2015-05-27 16:21:00,
2015-05-28 02:26:00,57.2,56.1,30.19,North,2,0.0,0.0,96,0.00,,,0.00,WeatherCatV2.02B30,2015-05-27 16:26:00,
2015-05-28 02:31:00,57.2,56.3,30.19,North,2,0.0,0.0,97,0.00,,,0.00,WeatherCatV2.02B30,2015-05-27 16:31:00,
2015-05-28 02:36:00,57.1,56.2,30.19,North,2,0.0,1.0,97,0.00,,,0.00,WeatherCatV2.02B30,2015-05-27 16:36:00,
2015-05-28 02:41:00,57.2,56.3,30.19,North,359,0.0,1.0,97,0.00,,,0.00,WeatherCatV2.02B30,2015-05-27 16:41:00,
2015-05-28 02:46:00,57.1,56.2,30.19,North,359,0.0,0.0,97,0.00,,,0.00,WeatherCatV2.02B30,2015-05-27 16:46:00,
2015-05-28 02:51:00,57.1,56.2,30.19,North,355,0.0,1.0,97,0.00,,,0.00,WeatherCatV2.02B30,2015-05-27 16:51:00,
2015-05-28 02:56:00,57.2,56.3,30.19,NNW,336,0.0,1.0,97,0.00,,,0.00,WeatherCatV2.02B30,2015-05-27 16:56:00,
2015-05-28 03:01:00,57.4,56.5,30.19,NW,322,0.0,1.0,97,0.00,,,0.00,WeatherCatV2.02B30,2015-05-27 17:01:00,
2015-05-28 03:06:00,57.3,56.5,30.20,NW,322,0.0,0.0,97,0.00,,,0.00,WeatherCatV2.02B30,2015-05-27 17:06:00,
2015-05-28 03:11:00,57.2,56.3,30.19,NW,317,1.0,1.0,97,0.00,,,0.00,WeatherCatV2.02B30,2015-05-27 17:11:00,
2015-05-28 03:16:00,57.3,56.5,30.19,NW,316,0.0,0.0,97,0.00,,,0.00,WeatherCatV2.02B30,2015-05-27 17:16:00,
2015-05-28 03:21:00,57.2,56.3,30.19,NW,316,0.0,0.0,97,0.00,,,0.00,WeatherCatV2.02B30,2015-05-27 17:21:00,
2015-05-28 03:26:00,57.1,56.2,30.20,NW,316,0.0,0.0,97,0.00,,,0.00,WeatherCatV2.02B30,2015-05-27 17:26:00,
2015-05-28 03:31:00,57.0,56.2,30.19,NW,317,0.0,0.0,97,0.00,,,0.00,WeatherCatV2.02B30,2015-05-27 17:31:00,
2015-05-28 03:36:00,57.1,56.2,30.19,NW,316,0.0,1.0,97,0.00,,,0.01,WeatherCatV2.02B30,2015-05-27 17:36:00,
2015-05-28 03:41:00,57.2,56.3,30.19,NW,315,0.0,1.0,97,0.00,,,0.01,WeatherCatV2.02B30,2015-05-27 17:41:00,
2015-05-28 03:46:00,57.2,56.3,30.19,NW,313,0.0,1.0,97,0.00,,,0.01,WeatherCatV2.02B30,2015-05-27 17:46:00,
2015-05-28 03:51:00,57.1,56.2,30.19,NW,319,1.0,1.0,97,0.00,,,0.01,WeatherCatV2.02B30,2015-05-27 17:51:00,
2015-05-28 03:56:00,57.1,56.2,30.19,NW,319,0.0,0.0,97,0.00,,,0.01,WeatherCatV2.02B30,2015-05-27 17:56:00,
2015-05-28 04:01:00,57.1,56.2,30.19,NW,304,0.0,1.0,97,0.00,,,0.01,WeatherCatV2.02B30,2015-05-27 18:01:00,
2015-05-28 04:06:00,57.1,56.2,30.19,NW,316,0.0,1.0,97,0.00,,,0.01,WeatherCatV2.02B30,2015-05-27 18:06:00,
2015-05-28 04:11:00,57.2,56.3,30.19,NW,322,0.0,0.0,97,0.00,,,0.01,WeatherCatV2.02B30,2015-05-27 18:11:00,
2015-05-28 04:16:00,57.2,56.3,30.19,WNW,297,1.0,2.0,97,0.00,,,0.01,WeatherCatV2.02B30,2015-05-27 18:16:00,
2015-05-28 04:21:00,57.2,56.3,30.20,NW,323,0.0,1.0,97,0.00,,,0.01,WeatherCatV2.02B30,2015-05-27 18:21:00,
2015-05-28 04:26:00,57.2,56.3,30.19,NW,316,1.0,1.0,97,0.00,,,0.01,WeatherCatV2.02B30,2015-05-27 18:26:00,
2015-05-28 04:31:00,57.2,56.3,30.19,NW,305,0.0,2.0,97,0.00,,,0.01,WeatherCatV2.02B30,2015-05-27 18:31:00,
2015-05-28 04:36:00,57.3,56.5,30.19,NW,317,1.0,3.0,97,0.00,,,0.01,WeatherCatV2.02B30,2015-05-27 18:36:00,
2015-05-28 04:41:00,57.3,56.5,30.19,NW,307,1.0,3.0,97,0.00,,,0.01,WeatherCatV2.02B30,2015-05-27 18:41:00,
2015-05-28 04:46:00,57.3,56.2,30.19,NW,317,1.0,2.0,96,0.00,,,0.01,WeatherCatV2.02B30,2015-05-27 18:46:00,
2015-05-28 04:51:00,57.2,56.1,30.20,NW,317,1.0,1.0,96,0.00,,,0.01,WeatherCatV2.02B30,2015-05-27 18:51:00,
2015-05-28 04:56:00,57.1,56.0,30.20,NW,322,0.0,1.0,96,0.00,,,0.01,WeatherCatV2.02B30,2015-05-27 18:56:00,
2015-05-28 05:01:00,57.0,55.9,30.19,NW,319,0.0,1.0,96,0.00,,,0.01,WeatherCatV2.02B30,2015-05-27 19:01:00,
2015-05-28 05:06:00,57.0,55.9,30.19,NW,309,1.0,1.0,96,0.00,,,0.01,WeatherCatV2.02B30,2015-05-27 19:06:00,
2015-05-28 05:11:00,57.0,55.9,30.19,NW,310,1.0,2.0,96,0.00,,,0.01,WeatherCatV2.02B30,2015-05-27 19:11:00,
2015-05-28 05:16:00,57.0,55.9,30.19,NW,317,1.0,2.0,96,0.00,,,0.01,WeatherCatV2.02B30,2015-05-27 19:16:00,
2015-05-28 05:21:00,57.0,55.9,30.20,NW,307,0.0,3.0,96,0.00,,,0.01,WeatherCatV2.02B30,2015-05-27 19:21:00,
2015-05-28 05:26:00,57.0,55.9,30.20,NW,312,1.0,2.0,96,0.00,,,0.01,WeatherCatV2.02B30,2015-05-27 19:26:00,
2015-05-28 05:31:00,57.0,55.9,30.20,NW,313,0.0,3.0,96,0.00,,,0.01,WeatherCatV2.02B30,2015-05-27 19:31:00,
2015-05-28 05:36:00,57.0,55.9,30.20,NW,323,0.0,0.0,96,0.00,,,0.01,WeatherCatV2.02B30,2015-05-27 19:36:00,
2015-05-28 05:41:00,56.8,55.7,30.20,NW,323,0.0,0.0,96,0.00,,,0.01,WeatherCatV2.02B30,2015-05-27 19:41:00,
2015-05-28 05:46:00,56.7,55.6,30.21,NW,322,0.0,1.0,96,0.00,,,0.01,WeatherCatV2.02B30,2015-05-27 19:46:00,
2015-05-28 05:51:00,56.7,55.6,30.20,NW,313,0.0,1.0,96,0.00,,,0.01,WeatherCatV2.02B30,2015-05-27 19:51:00,
2015-05-28 05:56:00,56.6,55.5,30.21,NNW,327,0.0,1.0,96,0.00,,,0.01,WeatherCatV2.02B30,2015-05-27 19:56:00,
2015-05-28 06:01:00,56.5,55.4,30.21,NNW,327,0.0,0.0,96,0.00,,,0.01,WeatherCatV2.02B30,2015-05-27 20:01:00,
2015-05-28 06:06:00,56.5,55.4,30.21,NNW,327,0.0,0.0,96,0.00,,,0.01,WeatherCatV2.02B30,2015-05-27 20:06:00,
2015-05-28 06:11:00,56.3,55.5,30.21,NW,326,0.0,1.0,97,0.00,,,0.01,WeatherCatV2.02B30,2015-05-27 20:11:00,
2015-05-28 06:16:00,56.3,55.5,30.21,NW,324,0.0,1.0,97,0.00,,,0.01,WeatherCatV2.02B30,2015-05-27 20:16:00,
2015-05-28 06:21:00,56.4,55.6,30.21,NW,323,0.0,1.0,97,0.00,,,0.01,WeatherCatV2.02B30,2015-05-27 20:21:00,
2015-05-28 06:31:00,56.5,55.7,30.21,NW,319,0.0,0.0,97,0.00,,,0.01,WeatherCatV2.02B30,2015-05-27 20:31:00,
2015-05-28 06:36:00,56.5,55.7,30.21,NW,313,0.0,1.0,97,0.00,,,0.01,WeatherCatV2.02B30,2015-05-27 20:36:00,
2015-05-28 06:41:00,56.6,55.8,30.22,NW,312,0.0,0.0,97,0.00,,,0.01,WeatherCatV2.02B30,2015-05-27 20:41:00,
2015-05-28 06:46:00,56.5,55.7,30.22,NNE,26,0.0,0.0,97,0.00,,,0.01,WeatherCatV2.02B30,2015-05-27 20:46:00,
2015-05-28 06:51:00,56.6,55.8,30.22,NNW,331,0.0,1.0,97,0.00,,,0.01,WeatherCatV2.02B30,2015-05-27 20:51:00,
2015-05-28 06:56:00,56.7,55.9,30.22,NW,308,1.0,2.0,97,0.00,,,0.01,WeatherCatV2.02B30,2015-05-27 20:56:00,
2015-05-28 07:01:00,56.8,56.0,30.22,NW,319,2.0,2.0,97,0.00,,,0.01,WeatherCatV2.02B30,2015-05-27 21:01:00,
2015-05-28 07:06:00,56.9,56.1,30.22,NW,323,0.0,0.0,97,0.00,,,0.01,WeatherCatV2.02B30,2015-05-27 21:06:00,
2015-05-28 07:11:00,56.9,56.1,30.23,NW,324,0.0,1.0,97,0.00,,,0.01,WeatherCatV2.02B30,2015-05-27 21:11:00,
2015-05-28 07:16:00,56.9,56.1,30.23,NNE,18,1.0,1.0,97,0.00,,,0.01,WeatherCatV2.02B30,2015-05-27 21:16:00,
2015-05-28 07:21:00,57.0,56.2,30.23,NNE,15,0.0,2.0,97,0.00,,,0.01,WeatherCatV2.02B30,2015-05-27 21:21:00,
2015-05-28 07:26:00,57.1,56.2,30.24,NNE,15,0.0,1.0,97,0.00,,,0.01,WeatherCatV2.02B30,2015-05-27 21:26:00,
2015-05-28 07:31:00,57.3,56.5,30.24,North,355,0.0,1.0,97,0.00,,,0.01,WeatherCatV2.02B30,2015-05-27 21:31:00,
2015-05-28 07:36:00,57.4,56.5,30.24,NNE,16,0.0,1.0,97,0.00,,,0.01,WeatherCatV2.02B30,2015-05-27 21:36:00,
2015-05-28 07:41:00,57.6,56.8,30.24,NNE,30,0.0,2.0,97,0.00,,,0.01,WeatherCatV2.02B30,2015-05-27 21:41:00,
2015-05-28 07:46:00,57.7,56.8,30.24,WSW,249,0.0,1.0,97,0.00,,,0.01,WeatherCatV2.02B30,2015-05-27 21:46:00,
2015-05-28 07:51:00,57.9,57.0,30.24,NE,39,0.0,1.0,97,0.00,,,0.01,WeatherCatV2.02B30,2015-05-27 21:51:00,
2015-05-28 07:56:00,58.1,57.2,30.24,North,355,0.0,1.0,97,0.00,,,0.01,WeatherCatV2.02B30,2015-05-27 21:56:00,
2015-05-28 08:02:00,58.4,57.5,30.25,North,10,0.0,1.0,97,0.00,,,0.01,WeatherCatV2.02B30,2015-05-27 22:02:00,
2015-05-28 08:07:00,58.7,57.6,30.25,North,350,0.0,1.0,96,0.00,,,0.01,WeatherCatV2.02B30,2015-05-27 22:07:00,
2015-05-28 08:12:00,59.0,57.9,30.25,NNE,30,1.0,1.0,96,0.00,,,0.01,WeatherCatV2.02B30,2015-05-27 22:12:00,
2015-05-28 08:17:00,59.3,57.9,30.25,NNE,30,1.0,2.0,95,0.00,,,0.01,WeatherCatV2.02B30,2015-05-27 22:17:00,
2015-05-28 08:22:00,59.6,58.2,30.25,NNE,28,0.0,1.0,95,0.00,,,0.01,WeatherCatV2.02B30,2015-05-27 22:22:00,
2015-05-28 08:27:00,60.0,58.3,30.25,NNE,26,0.0,2.0,94,0.00,,,0.01,WeatherCatV2.02B30,2015-05-27 22:27:00,
2015-05-28 08:32:00,60.5,58.8,30.25,NNE,19,0.0,1.0,94,0.00,,,0.01,WeatherCatV2.02B30,2015-05-27 22:32:00,
2015-05-28 08:37:00,60.9,58.9,30.25,NNE,26,0.0,2.0,93,0.00,,,0.01,WeatherCatV2.02B30,2015-05-27 22:37:00,
2015-05-28 08:42:00,61.4,59.0,30.26,NNE,16,2.0,2.0,92,0.00,,,0.01,WeatherCatV2.02B30,2015-05-27 22:42:00,
2015-05-28 08:47:00,61.8,59.5,30.26,NNW,338,1.0,1.0,92,0.00,,,0.01,WeatherCatV2.02B30,2015-05-27 22:47:00,
2015-05-28 08:52:00,62.1,59.4,30.26,North,10,0.0,1.0,91,0.00,,,0.01,WeatherCatV2.02B30,2015-05-27 22:52:00,
2015-05-28 08:57:00,62.4,59.7,30.26,North,357,2.0,2.0,91,0.00,,,0.01,WeatherCatV2.02B30,2015-05-27 22:57:00,
2015-05-28 09:02:00,62.6,59.6,30.26,North,357,0.0,3.0,90,0.00,,,0.01,WeatherCatV2.02B30,2015-05-27 23:02:00,
2015-05-28 09:07:00,62.8,59.8,30.26,North,1,0.0,1.0,90,0.00,,,0.01,WeatherCatV2.02B30,2015-05-27 23:07:00,
2015-05-28 09:12:00,63.2,59.9,30.25,NNE,29,0.0,2.0,89,0.00,,,0.01,WeatherCatV2.02B30,2015-05-27 23:12:00,
2015-05-28 09:17:00,63.6,60.0,30.26,NNE,23,0.0,3.0,88,0.00,,,0.01,WeatherCatV2.02B30,2015-05-27 23:17:00,
2015-05-28 09:22:00,63.8,59.8,30.26,North,359,3.0,4.0,87,0.00,,,0.01,WeatherCatV2.02B30,2015-05-27 23:22:00,
2015-05-28 09:27:00,63.9,60.0,30.26,NNE,23,2.0,3.0,87,0.00,,,0.01,WeatherCatV2.02B30,2015-05-27 23:27:00,
2015-05-28 09:32:00,64.3,60.0,30.26,NE,44,3.0,4.0,86,0.00,,,0.01,WeatherCatV2.02B30,2015-05-27 23:32:00,
2015-05-28 09:37:00,64.6,60.3,30.26,NE,45,2.0,2.0,86,0.00,,,0.01,WeatherCatV2.02B30,2015-05-27 23:37:00,
2015-05-28 09:42:00,64.9,60.3,30.25,NE,56,0.0,3.0,85,0.00,,,0.01,WeatherCatV2.02B30,2015-05-27 23:42:00,
2015-05-28 09:47:00,65.2,60.6,30.26,NNE,28,1.0,2.0,85,0.00,,,0.01,WeatherCatV2.02B30,2015-05-27 23:47:00,
2015-05-28 09:52:00,65.4,60.4,30.26,NNE,17,2.0,3.0,84,0.00,,,0.01,WeatherCatV2.02B30,2015-05-27 23:52:00,
2015-05-28 09:57:00,65.5,60.2,30.26,North,9,3.0,3.0,83,0.00,,,0.01,WeatherCatV2.02B30,2015-05-27 23:57:00,
2015-05-28 10:02:00,65.6,60.3,30.26,NNE,33,4.0,4.0,83,0.00,,,0.01,WeatherCatV2.02B30,2015-05-28 00:02:00,
2015-05-28 10:07:00,65.8,60.5,30.26,North,4,1.0,3.0,83,0.00,,,0.01,WeatherCatV2.02B30,2015-05-28 00:07:00,
2015-05-28 10:12:00,66.2,60.9,30.26,NNE,19,1.0,2.0,83,0.00,,,0.01,WeatherCatV2.02B30,2015-05-28 00:12:00,
2015-05-28 10:17:00,66.4,60.7,30.25,NNE,28,1.0,4.0,82,0.00,,,0.01,WeatherCatV2.02B30,2015-05-28 00:17:00,
2015-05-28 10:22:00,66.6,60.9,30.26,NNE,24,2.0,3.0,82,0.00,,,0.01,WeatherCatV2.02B30,2015-05-28 00:22:00,
2015-05-28 10:27:00,66.8,61.1,30.25,NE,42,2.0,5.0,82,0.00,,,0.01,WeatherCatV2.02B30,2015-05-28 00:27:00,
2015-05-28 10:37:00,67.5,61.5,30.25,NE,40,0.0,4.0,81,0.00,,,0.01,WeatherCatV2.02B30,2015-05-28 00:37:00,
2015-05-28 10:42:00,68.0,62.3,30.24,NE,35,1.0,2.0,82,0.00,,,0.01,WeatherCatV2.02B30,2015-05-28 00:42:00,
2015-05-28 10:47:00,68.1,61.7,30.24,North,10,1.0,5.0,80,0.00,,,0.01,WeatherCatV2.02B30,2015-05-28 00:47:00,
2015-05-28 10:52:00,68.6,62.2,30.24,NNE,19,0.0,1.0,80,0.00,,,0.01,WeatherCatV2.02B30,2015-05-28 00:52:00,
2015-05-28 10:57:00,69.2,62.0,30.24,NE,38,0.0,3.0,78,0.00,,,0.01,WeatherCatV2.02B30,2015-05-28 00:57:00,
2015-05-28 11:02:00,69.3,62.1,30.24,NNE,23,1.0,3.0,78,0.00,,,0.01,WeatherCatV2.02B30,2015-05-28 01:02:00,
2015-05-28 11:07:00,69.5,62.3,30.24,North,10,0.0,2.0,78,0.00,,,0.01,WeatherCatV2.02B30,2015-05-28 01:07:00,
2015-05-28 11:12:00,69.9,62.0,30.24,NNE,33,2.0,2.0,76,0.00,,,0.01,WeatherCatV2.02B30,2015-05-28 01:12:00,
2015-05-28 11:17:00,70.3,62.7,30.24,North,357,0.0,2.0,77,0.00,,,0.01,WeatherCatV2.02B30,2015-05-28 01:17:00,
2015-05-28 11:22:00,70.9,62.6,30.23,North,357,0.0,3.0,75,0.00,,,0.01,WeatherCatV2.02B30,2015-05-28 01:22:00,
2015-05-28 11:27:00,71.1,62.4,30.23,North,9,1.0,1.0,74,0.00,,,0.01,WeatherCatV2.02B30,2015-05-28 01:27:00,
2015-05-28 11:32:00,71.3,62.6,30.23,NW,316,0.0,1.0,74,0.00,,,0.01,WeatherCatV2.02B30,2015-05-28 01:32:00,
2015-05-28 11:42:00,71.3,62.2,30.23,NNW,348,0.0,2.0,73,0.00,,,0.01,WeatherCatV2.02B30,2015-05-28 01:42:00,
2015-05-28 11:47:00,72.0,62.1,30.22,NNE,28,0.0,1.0,71,0.00,,,0.01,WeatherCatV2.02B30,2015-05-28 01:47:00,
2015-05-28 11:52:00,72.5,62.5,30.22,NNE,30,1.0,2.0,71,0.00,,,0.01,WeatherCatV2.02B30,2015-05-28 01:52:00,
2015-05-28 11:57:00,72.9,62.1,30.22,NNE,23,1.0,1.0,69,0.00,,,0.01,WeatherCatV2.02B30,2015-05-28 01:57:00,
2015-05-28 12:02:00,72.8,62.0,30.21,NNE,14,1.0,1.0,69,0.00,,,0.01,WeatherCatV2.02B30,2015-05-28 02:02:00,
2015-05-28 12:07:00,73.3,62.1,30.21,North,5,0.0,1.0,68,0.00,,,0.01,WeatherCatV2.02B30,2015-05-28 02:07:00,
2015-05-28 12:12:00,73.6,62.0,30.21,North,358,0.0,0.0,67,0.00,,,0.01,WeatherCatV2.02B30,2015-05-28 02:12:00,
2015-05-28 12:17:00,73.9,60.5,30.21,NNE,23,1.0,3.0,63,0.00,,,0.01,WeatherCatV2.02B30,2015-05-28 02:17:00,
2015-05-28 12:22:00,74.2,62.1,30.21,NNW,345,0.0,1.0,66,0.00,,,0.01,WeatherCatV2.02B30,2015-05-28 02:22:00,
2015-05-28 12:27:00,74.9,62.3,30.20,North,2,0.0,0.0,65,0.00,,,0.01,WeatherCatV2.02B30,2015-05-28 02:27:00,
2015-05-28 12:32:00,74.5,61.5,30.20,NW,314,0.0,1.0,64,0.00,,,0.01,WeatherCatV2.02B30,2015-05-28 02:32:00,
2015-05-28 12:37:00,74.9,61.0,30.20,NNE,14,0.0,1.0,62,0.00,,,0.01,WeatherCatV2.02B30,2015-05-28 02:37:00,
2015-05-28 12:42:00,75.5,61.5,30.20,NNE,16,0.0,1.0,62,0.00,,,0.01,WeatherCatV2.02B30,2015-05-28 02:42:00,
2015-05-28 12:47:00,76.1,60.7,30.19,North,1,1.0,2.0,59,0.00,,,0.01,WeatherCatV2.02B30,2015-05-28 02:47:00,
2015-05-28 12:52:00,76.1,61.7,30.18,North,352,0.0,0.0,61,0.00,,,0.01,WeatherCatV2.02B30,2015-05-28 02:52:00,
2015-05-28 12:57:00,75.9,61.5,30.18,NW,324,0.0,0.0,61,0.00,,,0.01,WeatherCatV2.02B30,2015-05-28 02:57:00,
2015-05-28 13:02:00,76.4,63.3,30.17,WNW,298,0.0,1.0,64,0.00,,,0.01,WeatherCatV2.02B30,2015-05-28 03:02:00,
2015-05-28 13:07:00,76.9,61.5,30.17,North,352,1.0,1.0,59,0.00,,,0.01,WeatherCatV2.02B30,2015-05-28 03:07:00,
2015-05-28 13:12:00,76.6,61.2,30.17,North,354,0.0,1.0,59,0.00,,,0.01,WeatherCatV2.02B30,2015-05-28 03:12:00,
2015-05-28 13:17:00,75.6,60.2,30.17,NW,317,0.0,3.0,59,0.00,,,0.01,WeatherCatV2.02B30,2015-05-28 03:17:00,
2015-05-28 13:22:00,75.6,60.2,30.17,NW,309,2.0,2.0,59,0.00,,,0.01,WeatherCatV2.02B30,2015-05-28 03:22:00,
2015-05-28 13:27:00,75.6,59.3,30.17,NW,322,2.0,4.0,57,0.00,,,0.01,WeatherCatV2.02B30,2015-05-28 03:27:00,
2015-05-28 13:32:00,75.2,59.4,30.17,North,7,1.0,2.0,58,0.00,,,0.01,WeatherCatV2.02B30,2015-05-28 03:32:00,
2015-05-28 13:37:00,75.2,59.4,30.16,NE,40,0.0,2.0,58,0.00,,,0.01,WeatherCatV2.02B30,2015-05-28 03:37:00,
2015-05-28 13:42:00,75.4,59.1,30.16,NNE,14,0.0,1.0,57,0.00,,,0.01,WeatherCatV2.02B30,2015-05-28 03:42:00,
2015-05-28 13:47:00,76.1,60.2,30.16,North,9,0.0,0.0,58,0.00,,,0.01,WeatherCatV2.02B30,2015-05-28 03:47:00,
2015-05-28 13:52:00,75.9,59.5,30.16,NNE,23,0.0,0.0,57,0.00,,,0.01,WeatherCatV2.02B30,2015-05-28 03:52:00,
2015-05-28 13:57:00,75.5,58.2,30.16,North,11,1.0,3.0,55,0.00,,,0.01,WeatherCatV2.02B30,2015-05-28 03:57:00,
2015-05-28 14:02:00,75.5,58.2,30.15,NNW,338,0.0,2.0,55,0.00,,,0.01,WeatherCatV2.02B30,2015-05-28 04:02:00,
2015-05-28 14:07:00,75.2,57.4,30.15,NW,309,0.0,1.0,54,0.00,,,0.01,WeatherCatV2.02B30,2015-05-28 04:07:00,
2015-05-28 14:12:00,75.5,59.2,30.15,NW,318,0.0,0.0,57,0.00,,,0.01,WeatherCatV2.02B30,2015-05-28 04:12:00,
2015-05-28 14:17:00,75.3,57.0,30.15,North,7,0.0,2.0,53,0.00,,,0.01,WeatherCatV2.02B30,2015-05-28 04:17:00,
2015-05-28 14:22:00,74.9,58.6,30.15,North,354,0.0,0.0,57,0.00,,,0.01,WeatherCatV2.02B30,2015-05-28 04:22:00,
2015-05-28 14:27:00,74.6,57.8,30.15,NNW,343,3.0,3.0,56,0.00,,,0.01,WeatherCatV2.02B30,2015-05-28 04:27:00,
2015-05-28 14:32:00,74.3,57.6,30.15,NNW,333,0.0,2.0,56,0.00,,,0.01,WeatherCatV2.02B30,2015-05-28 04:32:00,
2015-05-28 14:37:00,74.0,57.3,30.15,North,351,0.0,2.0,56,0.00,,,0.01,WeatherCatV2.02B30,2015-05-28 04:37:00,
2015-05-28 14:42:00,73.9,56.7,30.16,NW,324,1.0,1.0,55,0.00,,,0.01,WeatherCatV2.02B30,2015-05-28 04:42:00,
2015-05-28 14:47:00,73.7,57.0,30.16,NNW,337,0.0,0.0,56,0.00,,,0.01,WeatherCatV2.02B30,2015-05-28 04:47:00,
2015-05-28 14:52:00,73.7,58.0,30.16,NNW,337,0.0,0.0,58,0.00,,,0.01,WeatherCatV2.02B30,2015-05-28 04:52:00,
2015-05-28 14:57:00,73.6,57.4,30.16,NNW,337,0.0,0.0,57,0.00,,,0.01,WeatherCatV2.02B30,2015-05-28 04:57:00,
2015-05-28 15:02:00,73.5,57.3,30.16,NNW,331,1.0,1.0,57,0.00,,,0.01,WeatherCatV2.02B30,2015-05-28 05:02:00,
2015-05-28 15:07:00,73.6,57.9,30.16,NNE,15,0.0,1.0,58,0.00,,,0.01,WeatherCatV2.02B30,2015-05-28 05:07:00,
2015-05-28 15:12:00,73.7,58.5,30.16,NNW,337,0.0,1.0,59,0.00,,,0.01,WeatherCatV2.02B30,2015-05-28 05:12:00,
2015-05-28 15:17:00,73.8,59.0,30.16,NNW,333,1.0,1.0,60,0.00,,,0.01,WeatherCatV2.02B30,2015-05-28 05:17:00,
2015-05-28 15:22:00,73.7,58.9,30.16,NNW,334,0.0,0.0,60,0.00,,,0.01,WeatherCatV2.02B30,2015-05-28 05:22:00,
2015-05-28 15:27:00,73.6,57.9,30.16,NNW,331,0.0,0.0,58,0.00,,,0.01,WeatherCatV2.02B30,2015-05-28 05:27:00,
2015-05-28 15:32:00,73.7,60.3,30.16,NE,40,0.0,2.0,63,0.00,,,0.01,WeatherCatV2.02B30,2015-05-28 05:32:00,
2015-05-28 15:37:00,73.4,61.8,30.16,WSW,253,0.0,2.0,67,0.00,,,0.01,WeatherCatV2.02B30,2015-05-28 05:37:00,
2015-05-28 15:42:00,72.9,61.3,30.16,NE,48,1.0,3.0,67,0.00,,,0.01,WeatherCatV2.02B30,2015-05-28 05:42:00,
2015-05-28 15:47:00,72.4,61.6,30.16,NE,36,0.0,1.0,69,0.00,,,0.01,WeatherCatV2.02B30,2015-05-28 05:47:00,
2015-05-28 15:52:00,72.2,61.9,30.15,North,351,0.0,1.0,70,0.00,,,0.01,WeatherCatV2.02B30,2015-05-28 05:52:00,
2015-05-28 15:57:00,72.1,61.8,30.16,West,276,1.0,2.0,70,0.00,,,0.01,WeatherCatV2.02B30,2015-05-28 05:57:00,
2015-05-28 16:02:00,71.8,61.5,30.16,NW,308,1.0,1.0,70,0.00,,,0.01,WeatherCatV2.02B30,2015-05-28 06:02:00,
2015-05-28 16:07:00,71.7,61.4,30.16,West,279,0.0,1.0,70,0.00,,,0.01,WeatherCatV2.02B30,2015-05-28 06:07:00,
2015-05-28 16:12:00,71.4,61.1,30.16,WNW,291,0.0,1.0,70,0.00,,,0.01,WeatherCatV2.02B30,2015-05-28 06:12:00,
2015-05-28 16:17:00,71.3,60.6,30.16,West,265,0.0,1.0,69,0.00,,,0.01,WeatherCatV2.02B30,2015-05-28 06:17:00,
2015-05-28 16:22:00,71.1,60.4,30.16,NNW,327,0.0,0.0,69,0.00,,,0.01,WeatherCatV2.02B30,2015-05-28 06:22:00,
2015-05-28 16:27:00,70.9,60.2,30.16,NE,49,0.0,1.0,69,0.00,,,0.01,WeatherCatV2.02B30,2015-05-28 06:27:00,
2015-05-28 16:32:00,70.6,59.5,30.16,West,269,0.0,0.0,68,0.00,,,0.01,WeatherCatV2.02B30,2015-05-28 06:32:00,
2015-05-28 16:38:00,70.4,59.3,30.17,NW,308,0.0,1.0,68,0.00,,,0.01,WeatherCatV2.02B30,2015-05-28 06:38:00,
2015-05-28 16:43:00,70.1,59.4,30.17,WSW,242,0.0,1.0,69,0.00,,,0.01,WeatherCatV2.02B30,2015-05-28 06:43:00,
2015-05-28 16:48:00,69.8,59.6,30.17,NW,319,0.0,0.0,70,0.00,,,0.01,WeatherCatV2.02B30,2015-05-28 06:48:00,
2015-05-28 16:53:00,69.4,59.6,30.17,WNW,289,1.0,1.0,71,0.00,,,0.01,WeatherCatV2.02B30,2015-05-28 06:53:00,
2015-05-28 16:58:00,69.1,59.7,30.17,NW,326,0.0,1.0,72,0.00,,,0.01,WeatherCatV2.02B30,2015-05-28 06:58:00,
2015-05-28 17:03:00,68.7,59.7,30.17,NE,56,0.0,1.0,73,0.00,,,0.01,WeatherCatV2.02B30,2015-05-28 07:03:00,
2015-05-28 17:08:00,68.3,59.3,30.17,NE,54,0.0,0.0,73,0.00,,,0.01,WeatherCatV2.02B30,2015-05-28 07:08:00,
2015-05-28 17:13:00,68.0,59.4,30.17,NE,45,1.0,1.0,74,0.00,,,0.01,WeatherCatV2.02B30,2015-05-28 07:13:00,